Find Starlink 31745

NORAD ID: 60329 Int'l Des: 2024-136 Owner: SPXS Country: US Constellation: starlink operational
LEOCIRCULAR

現在のビュー

3D地球を読み込み中...

About Starlink 31745

Starlink 31745 (NORAD 60329) is a starlink constellation satellite (v2 mini) launched Aug 2, 2024 by SPXS of US. It operates in LEO, CIRCULAR orbit with a mass of 730.00 kg.

次回通過

Passes for default location (London). Set your location on the main map for personalized predictions.

高度履歴

Loading altitude history...

軌道要素

1 60329U 24136A 26235.66907975 -.00000173 00000-0 61811-5 0 9997
2 60329 53.1603 19.0897 0001208 92.9281 267.1859 15.31706999116451
Epoch: Aug 23, 2026 • Age: 14 hours

現在のステータス

高度 471.5 km
遠地点 / 近地点 N/A
速度 7.63 km/s
衛星直下点 1.27°N, 47.62°W
打ち上げ日 Aug 2, 2024
運用期間 2 years
タイプ internet

技術仕様

分類 Payload
質量 730.00 kg
乾燥質量 700.00 kg
総質量 730.00 kg
長さ 0.30 m
直径 4.10 m
スパン 29.00 m
形状 Box + pan
製造者 SPXS
バスタイプ Starlink V2M
フェーズステータス In Orbit
所有者/国 SPXS/US

Most Searched